{"data":{"norad_id":65500,"intl_designator":"2025-198J","name":"STARLINK-35207","alt_names":[],"object_type":"PAYLOAD","status":"ACTIVE","operator":null,"country":"US","launch_date":"2025-09-05","launch_site_code":"AFETR","launch_vehicle":null,"mission":null,"orbit_class":"UNKNOWN","rcs_meters":null,"size_class":null,"mass_kg":null,"dimensions":null,"purposes":["comms"],"wikipedia_slug":null,"has_3d_model":false,"image_url":null,"decayed_at":null,"tle_current":{"epoch":"2026-09-20T21:10:33.498624Z","epoch_age_seconds":78946,"freshness":"FRESH","line1":"1 65500U 25198J   26263.88233216  .00015322  00000+0  46373-3 0  9991","line2":"2 65500  53.1589  81.6011 0000971 106.4554 253.6556 15.34395756 58540","mean_motion":15.34395756,"eccentricity":9.71e-5,"inclination_deg":53.1589,"raan_deg":81.6011,"arg_perigee_deg":106.4554,"mean_anomaly_deg":253.6556,"bstar":0.00046373,"rev_number":5854,"period_min":93.848017655753,"perigee_km":462.05160748641,"apogee_km":463.38010111072,"semimajor_km":6840.8528542986,"source":"CELESTRAK","updated_at":"2026-09-21T09:00:35.642562Z"}}}